TAPIOLES Weather Reports


time (UTC)temp
C
wind
direction
speed
KPH
gust
KPH
rain 1hr
cm
rain 24hr
cm
rain mn
cm
humidity
%
barometer
mb
20260507191506 13 335 3.2 6.4 0.00 0.18 0.15 83 1016.2
20260507190006 14 90 1.6 3.2 0.00 0.20 0.15 82 1016.2
20260507184506 14 90 3.2 3.2 0.00 0.20 0.15 84 1016.1
20260507183006 15 125 3.2 3.2 0.00 0.20 0.15 82 1015.9
20260507181505 16 113 0.0 3.2 0.00 0.20 0.15 73 1015.8
20260507180006 16 82 0.0 6.4 0.00 0.20 0.15 73 1015.8
20260507173006 16 93 11.3 20.9 0.00 0.20 0.15 72 1015.6
20260507171505 16 106 12.9 20.9 0.00 0.20 0.15 71 1015.7
20260507170006 16 123 14.5 22.5 0.00 0.20 0.15 70 1015.5
20260507161505 17 109 12.9 22.5 0.00 0.20 0.15 69 1015.7
20260507160005 17 79 12.9 29.0 0.00 0.20 0.15 70 1015.6
20260507154506 18 90 14.5 32.2 0.00 0.20 0.15 68 1015.4
20260507153005 17 77 19.3 35.4 0.00 0.20 0.15 68 1015.6
20260507151506 18 102 19.3 33.8 0.00 0.20 0.15 64 1015.4
20260507144505 18 107 20.9 38.6 0.00 0.20 0.15 65 1015.3
20260507143006 19 104 19.3 38.6 0.00 0.20 0.15 63 1015.4
20260507141505 18 117 17.7 37.0 0.00 0.20 0.15 65 1015.3
20260507140006 19 114 24.1 35.4 0.00 0.20 0.15 64 1015.4
20260507134505 19 99 22.5 38.6 0.00 0.20 0.15 68 1015.9
20260507133006 20 107 17.7 38.6 0.00 0.20 0.15 68 1015.8
20260507131505 20 111 27.4 37.0 0.00 0.20 0.15 67 1015.7
20260507130005 20 115 17.7 32.2 0.00 0.20 0.15 68 1015.8
20260507123005 20 106 19.3 32.2 0.00 0.20 0.15 66 1016.0
20260507121505 19 110 17.7 27.4 0.00 0.20 0.15 66 1015.8
20260507120006 19 102 20.9 29.0 0.00 0.20 0.15 68 1016.2
20260507114506 19 106 24.1 27.4 0.00 0.20 0.15 67 1016.1
20260507113006 19 117 17.7 25.7 0.00 0.20 0.15 69 1016.5
20260507111506 19 116 6.4 22.5 0.00 0.20 0.15 69 1016.5
20260507110006 19 101 9.7 24.1 0.00 0.20 0.15 67 1016.6
20260507104505 19 114 12.9 24.1 0.00 0.20 0.15 72 1016.7
20260507101505 17 125 12.9 20.9 0.00 0.20 0.15 72 1016.7
20260507100006 18 121 16.1 20.9 0.00 0.20 0.15 73 1017.1
20260507094506 18 122 3.2 17.7 0.00 0.20 0.15 70 1016.8
20260507093005 18 74 11.3 14.5 0.00 0.20 0.15 71 1016.8
20260507091504 17 76 8.0 14.5 0.00 0.20 0.15 73 1016.7
20260507090007 17 92 6.4 12.9 0.00 0.20 0.15 73 1016.9
20260507084505 17 60 4.8 9.7 0.00 0.20 0.15 74 1016.6
20260507081505 16 101 3.2 9.7 0.00 0.20 0.15 79 1016.8
20260507080006 15 135 1.6 6.4 0.00 0.20 0.15 80 1017.2
20260507073005 13 282 1.6 3.2 0.00 0.20 0.15 99 1017.1
20260507071505 12 282 1.6 3.2 0.00 0.20 0.15 99 1016.9
20260507064505 10 295 1.6 3.2 0.00 0.20 0.15 99 1016.8
20260507063005 10 289 0.0 3.2 0.00 0.20 0.15 99 1016.9
20260507060005 8 272 0.0 3.2 0.00 0.20 0.15 99 1016.5
20260507054505 8 287 3.2 6.4 0.00 0.20 0.15 99 1016.5
20260507053005 8 303 3.2 6.4 0.00 0.20 0.15 99 1016.5
20260507051505 8 327 1.6 6.4 0.00 0.20 0.15 99 1016.6
20260507050005 8 298 3.2 3.2 0.00 0.20 0.15 99 1016.2
20260507044505 7 305 1.6 6.4 0.00 0.20 0.15 99 1016.4
20260507043005 7 284 0.0 6.4 0.00 0.20 0.15 99 1016.4
20260507041504 7 270 0.0 3.2 0.00 0.20 0.15 99 1016.3
20260507040005 8 294 1.6 3.2 0.00 0.20 0.15 99 1016.5
20260507031504 8 293 0.0 3.2 0.00 0.20 0.15 99 1016.1
20260507030005 8 297 3.2 6.4 0.03 0.20 0.15 99 1016.4
20260507024505 8 303 1.6 6.4 0.03 0.20 0.15 99 1016.3
20260507023004 8 333 1.6 6.4 0.03 0.20 0.15 99 1016.5
20260507020004 9 337 3.2 6.4 0.00 0.18 0.13 99 1016.6
20260507014504 10 327 3.2 6.4 0.00 0.18 0.13 99 1016.7
20260507013005 10 342 3.2 6.4 0.00 0.18 0.13 99 1016.5
20260507011504 10 289 3.2 6.4 0.05 0.18 0.13 99 1016.9
20260507010005 10 270 0.0 3.2 0.10 0.18 0.13 99 1016.9
20260507004504 10 294 1.6 3.2 0.13 0.18 0.13 99 1017.1
20260507003005 10 340 1.6 3.2 0.13 0.18 0.13 99 1017.5
20260507001505 10 279 0.0 6.4 0.05 0.13 0.05 99 1017.4
20260506234505 10 293 3.2 6.4 0.00 0.05 0.00 99 1017.8
20260506233006 11 299 1.6 6.4 0.00 0.05 0.00 99 1017.5
20260506231504 11 286 1.6 3.2 0.00 0.05 0.00 99 1017.5
20260506230004 11 333 0.0 6.4 0.00 0.05 0.00 99 1017.5
20260506223004 11 301 3.2 3.2 0.00 0.05 0.00 99 1017.6
20260506221505 11 2 3.2 9.7 0.00 0.05 0.00 99 1017.7
20260506214504 11 56 0.0 3.2 0.00 0.05 0.05 99 1017.7
20260506211504 11 355 3.2 3.2 0.00 0.05 0.05 99 1017.7
20260506210004 11 350 1.6 6.4 0.00 0.05 0.05 99 1017.7
20260506204504 11 32 1.6 3.2 0.00 0.05 0.05 99 1017.5
20260506203004 11 290 0.0 3.2 0.00 0.05 0.05 99 1017.2
20260506201504 11 42 0.0 6.4 0.03 0.05 0.05 99 1016.7
20260506200004 11 302 1.6 3.2 0.05 0.05 0.05 99 1016.7
20260506194504 11 21 3.2 9.7 0.05 0.05 0.05 99 1016.6
20260506193004 12 349 3.2 6.4 0.05 0.05 0.05 97 1016.5